Regional Weather Roundup
Issued by NWS

Home | Current Version | Previous Version | Graphics & Text | Print | Product List | Glossary On
Versions: 1 2 3 4 5 6 7 8 9 10 11 12 13 14 15 16 17 18 19 20 21 22 23 24 25 26 27 28 29 30 31 32 33 34 35 36 37 38 39 40 41 42 43 44 45 46 47 48 49 50
000
ASUS43 KDMX 260307
RWRIA

WEATHER ROUNDUP FOR IOWA
NATIONAL WEATHER SERVICE DES MOINES IA
900 PM CST THU DEC 25 2014

NOTE: "FAIR" INDICATES FEW OR NO CLOUDS BELOW 12,000 FEET WITH NO
SIGNIFICANT WEATHER AND/OR OBSTRUCTIONS TO VISIBILITY.

* - THESE STATIONS ARE NOT NWS STATIONS...THUS NOT UNDER NWS
QUALITY CONTROL.  THEY ALSO DO NOT REPORT WEATHER SUCH
AS PRECIPITATION OR FOG.

IAZ001>003-012>014-020>022-031>034-043>046-260400-
   NORTHWEST IOWA

CITY           SKY/WX    TMP DP  RH WIND       PRES   REMARKS
CARROLL *      PTCLDY    34  32  93 CALM      29.72S
CHEROKEE *     CLEAR     31  31 100 N7        29.74R WCI  24
DENISON *      PTCLDY    36  32  87 CALM      29.69R
LE MARS *      CLOUDY    34  32  93 NE10G16   29.76R WCI  26
ORANGE CITY *  CLOUDY    34  30  86 NE9G17    29.75R WCI  26
SHELDON *      CLOUDY    32  32 100 NE15G21   29.75S WCI  22
SIOUX CITY     MOCLDY    33  30  88 N10       29.74R WCI  25
SPENCER        CLOUDY    33  30  88 NE12      29.75S WCI  24
STORM LAKE *   PTCLDY    30  28  93 NE9       29.73S WCI  22
$$

IAZ055>058-069>071-079>083-090>094-260400-
   SOUTHWEST IOWA

CITY           SKY/WX    TMP DP  RH WIND       PRES   REMARKS
ATLANTIC *     MOCLDY    39  32  75 CALM      29.71S
AUDUBON *      MOCLDY    34  28  80 CALM      29.72S
CLARINDA *     CLOUDY    43  32  65 S8        29.74R
COUNCIL BLFS * PTCLDY    39  34  81 S7        29.69R WCI  34
CRESTON *      CLOUDY    41  32  70 S9        29.74R
HARLAN  *        N/A     37  36  93 CALM      29.74S
LAMONI         CLOUDY    43  32  65 S12       29.76R
RED OAK *      CLOUDY    39  32  75 S7        29.72R WCI  34
SHENANDOAH *   CLOUDY    43  32  65 S10       29.72R
$$

IAZ047>049-059>061-072>074-084-260400-
   CENTRAL IOWA

CITY           SKY/WX    TMP DP  RH WIND       PRES   REMARKS
AMES           MOCLDY    37  29  72 SE6       29.77R WCI  32
ANKENY *       MOCLDY    39  30  70 SE6       29.77S WCI  35
CHARITON *     CLOUDY    41  32  70 SE10      29.77F
DES MOINES     CLOUDY    43  30  60 SE13      29.77R
GRINNELL*      PTCLDY    35  31  85 E8        29.81R WCI  28
KNOXVILLE *    MOCLDY    41  30  65 SE12      29.77S
MARSHALLTOWN   MOCLDY    39  31  72 SE15      29.78S WCI  31
PELLA *        PTCLDY    41  32  69 SE9       29.81S
PERRY *          N/A     38  32  79 SE10      29.74S WCI  31
$$

IAZ004>006-015-016-023>025-035-036-260400-
   NORTH CENTRAL IOWA

CITY           SKY/WX    TMP DP  RH WIND       PRES   REMARKS
ALGONA *       CLEAR     34 N/A N/A E5        29.76F WCI  30
CLARION *      PTCLDY    36  32  87 SE14      29.76S WCI  27
ESTHERVILLE    CLOUDY    31  30  96 NE10      29.76S WCI  22
FORT DODGE *   PTCLDY    32  25  74 E7        29.75S WCI  26
MASON CITY     CLEAR     33  30  88 SE8       29.79S WCI  26
FOREST CITY *    N/A     34  32  93 SE5       29.77F WCI  30
IOWA FALLS *     N/A     36  32  85 SE10      29.79S WCI  28
$$

IAZ007>011-017>019-026>030-037>042-050>054-066-260400-
   NORTHEAST IOWA

CITY           SKY/WX    TMP DP  RH WIND       PRES   REMARKS
CEDAR RAPIDS   MOCLDY    40  32  73 S12       29.84S WCI  33
CHARLES CITY * PTCLDY    36  34  93 SE12      29.81S WCI  27
CLINTON *      PTCLDY    37  32  81 S10       29.94R WCI  30
DECORAH *      MOCLDY    37  32  81 S8        29.82S WCI  31
DUBUQUE        PTCLDY    36  31  82 S14       29.88R WCI  27
MONTICELLO *   MOCLDY    37  34  87 SE8       29.87S WCI  31
OELWEIN *      MOCLDY    36  32  87 SE12      29.84S WCI  27
WATERLOO       MOCLDY    38  32  79 S10       29.82R WCI  31
$$

IAZ064-065-067-068-078-260400-
   EAST CENTRAL IOWA

CITY           SKY/WX    TMP DP  RH WIND       PRES   REMARKS
DAVENPORT      PTCLDY    40  32  73 S15       29.91R WCI  32
IOWA CITY      MOCLDY    37  32  82 SE8       29.88S WCI  31
MT. PLEASANT * PTCLDY    40  32  71 SE12      29.88R WCI  34
MUSCATINE *    PTCLDY    41  34  75 SE9       29.89S
QUAD CITIES    PTCLDY    40  33  76 SE10      29.91R WCI  33
$$

IAZ062-063-075>077-085>089-095>099-260400-
   SOUTHEAST IOWA

CITY           SKY/WX    TMP DP  RH WIND       PRES   REMARKS
BURLINGTON     PTCLDY    42  33  70 S10       29.89R
FAIRFIELD *    PTCLDY    37  30  75 SE7       29.85S WCI  32
FORT MADISON * PTCLDY    43  36  75 S10       29.89R
KEOKUK *       MOCLDY    43  32  65 SE8       29.88R
OSKALOOSA *      N/A     36  31  83 SE13      29.83R WCI  27
CENTERVILLE *    N/A     41  32  70 SE8       29.82R
OTTUMWA        PTCLDY    41  30  65 S13       29.83R
WASHINGTON *   PTCLDY    37  36  93 SE12      29.86S WCI  30
$$

ABBREVIATIONS USED IN REMARKS
   TC - TEMPERATURES IN CELSIUS
  WCI - WIND CHILL INDEX
   HX - HEAT INDEX
  VSB - VISIBILITY
$$




USA.gov is the U.S. government's official web portal to all federal, state and local government web resources and services.